Regional Weather Roundup
Issued by NWS

Home | Current Version | Previous Version | Graphics & Text | Print | Product List | Glossary Off
Versions: 1 2 3 4 5 6 7 8 9 10 11 12 13 14 15 16 17 18 19 20 21 22 23 24 25 26 27 28 29 30 31 32 33 34 35 36 37 38 39 40 41 42 43 44 45 46 47 48 49 50

000
ASUS43 KMKX 301221
RWRWI

WISCONSIN REGIONAL WEATHER ROUNDUP
NATIONAL WEATHER SERVICE MILWAUKEE/SULLIVAN WI
700 AM CDT TUE AUG 30 2016

NOTE: "FAIR" INDICATES FEW OR NO CLOUDS BELOW 12,000 FEET WITH NO
SIGNIFICANT WEATHER AND/OR OBSTRUCTIONS TO VISIBILITY.

WIZ001-002-006>008-014>016-023>028-301300-
NORTHWEST WISCONSIN

CITY           SKY/WX    TMP DP  RH WIND       PRES   REMARKS
SUPERIOR ARPT  FAIR      63  60  90 E3        30.16R
6HR MIN TEMP:  63; 6HR MAX TEMP:  67;

ASHLAND        MOCLDY    66  64  93 NW5       30.13R
6HR MIN TEMP:  62; 6HR MAX TEMP:  67;

HAYWARD        CLOUDY    65  63  93 VRB6      30.15R
6HR MIN TEMP:  62; 6HR MAX TEMP:  67;

SIREN          FAIR      63  62  97 W3        30.15S
6HR MIN TEMP:  63; 6HR MAX TEMP:  66;

CUMBERLAND     FAIR      63  61  94 NW7       30.15R
RICE LAKE      FAIR      65  62  90 CALM      30.16S
6HR MIN TEMP:  64; 6HR MAX TEMP:  68; 6HR PCP:  0.02;

CHETEK         NOT AVBL
LADYSMITH      FAIR      63  62  95 CALM      30.17R
6HR MIN TEMP:  63; 6HR MAX TEMP:  68; 6HR PCP:  0.04;

EAU CLAIRE     FAIR      65  62  90 NE5       30.14R
6HR MIN TEMP:  65; 6HR MAX TEMP:  69; 6HR PCP: TRACE;

MENOMONIE      FAIR      66  62  86 CALM      30.16R
6HR MIN TEMP:  66; 6HR MAX TEMP:  68; 6HR PCP:  0.01;

NEW RICHMOND   FAIR      64  64  99 NW3       30.16S
6HR MIN TEMP:  64; 6HR MAX TEMP:  67; 6HR PCP:  0.34;

OSCEOLA        FAIR      65  65 100 CALM      30.19R
6HR MIN TEMP:  65; 6HR MAX TEMP:  69; 6HR PCP:  0.18;

$$

WIZ003>005-009-010-017-018-301300-
NORTH CENTRAL WISCONSIN

CITY           SKY/WX    TMP DP  RH WIND       PRES   REMARKS
MANITOWISH WTR NOT AVBL
ARBOR VITAE    FAIR      62  61  95 CALM      30.15R
6HR MIN TEMP:  62; 6HR MAX TEMP:  72;

WOODRUFF       FAIR      62  61  95 CALM      30.15R
6HR MIN TEMP:  62; 6HR MAX TEMP:  72;

RHINELANDER    FAIR      66  66 100 W5        30.16R FOG
6HR MIN TEMP:  63; 6HR MAX TEMP:  72;

EAGLE RIVER    FAIR      64  64 100 CALM      30.14R FOG
6HR MIN TEMP:  62; 6HR MAX TEMP:  70;

LAND O LAKES   CLOUDY    64  64  99 CALM      30.15R
6HR MIN TEMP:  62; 6HR MAX TEMP:  70;

PHILLIPS       MOCLDY    62  62  99 CALM      30.15S
6HR MIN TEMP:  61; 6HR MAX TEMP:  68; 6HR PCP:  0.02;

TOMAHAWK       FAIR      63  62  96 CALM      30.16R
6HR MIN TEMP:  62; 6HR MAX TEMP:  70;

MEDFORD        FAIR      61  61 100 NW3       30.16R
6HR MIN TEMP:  61; 6HR MAX TEMP:  70;

MERRILL        FAIR      64  64 100 CALM      30.17R
6HR MIN TEMP:  63; 6HR MAX TEMP:  72;

$$

WIZ029-030-035-036-043>047-301300-
CENTRAL WISCONSIN

CITY           SKY/WX    TMP DP  RH WIND       PRES   REMARKS
WAUSAU         FAIR      66  63  90 NE3       30.13R
6HR MIN TEMP:  65; 6HR MAX TEMP:  73;

MOSINEE        CLEAR     64  64 100 VRB5      30.16R
MARSHFIELD     FAIR      65  60  84 N3        30.15R
6HR MIN TEMP:  64; 6HR MAX TEMP:  72;

STEVENS POINT  FAIR      64  64 100 N5        30.16R FOG
6HR MIN TEMP:  63; 6HR MAX TEMP:  69;

WAUPACA        FAIR      70  69  98 CALM      30.13R FOG
6HR MIN TEMP:  67; 6HR MAX TEMP:  71;

WAUTOMA        FOG       70  68  94 CALM      30.13S VSB 1/4
6HR MIN TEMP:  66; 6HR MAX TEMP:  69;

WISC RAPIDS    FAIR      65  65 100 CALM      30.15R FOG
6HR MIN TEMP:  63; 6HR MAX TEMP:  70;

CAMP DOUGLAS   MOCLDY    68  68 100 CALM      30.12F
$$

WIZ011>013-019>022-031-037>040-048>050-301300-
NORTHEAST WISCONSIN

CITY           SKY/WX    TMP DP  RH WIND       PRES   REMARKS
ANTIGO         FOG       66  66 100 CALM      30.16R VSB 1/4
6HR MIN TEMP:  65; 6HR MAX TEMP:  69;

SHAWANO        FOG       71  69  94 W5        30.13R VSB 1/4
6HR MIN TEMP:  70; 6HR MAX TEMP:  73;

OCONTO         NOT AVBL
STURGEON BAY   FAIR      70  69  97 SW5       30.12R
6HR MIN TEMP:  69; 6HR MAX TEMP:  73;

GREEN BAY      FAIR      68  68 100 CALM      30.12R FOG
6HR MIN TEMP:  65; 6HR MAX TEMP:  69;

MANITOWOC      FAIR      70  67  90 W3        30.12S
6HR MIN TEMP:  64; 6HR MAX TEMP:  70;

APPLETON       MOCLDY    70  70 100 SW7       30.11S FOG
CLINTONVILLE   FOG       68  68 100 W3        30.13R VSB 3/4
OSHKOSH        FAIR      70  68  93 S5        30.12S FOG
6HR MIN TEMP:  67; 6HR MAX TEMP:  71;

$$

WIZ032>034-041-042-053>061-301300-
SOUTHWEST WISCONSIN

CITY           SKY/WX    TMP DP  RH WIND       PRES   REMARKS
LA CROSSE      FOG       71  71 100 S10       30.10F VSB 3/4
6HR MIN TEMP:  70; 6HR MAX TEMP:  73;

SPARTA         FOG       64  64 100 E3        30.12F VSB 3/4
6HR MIN TEMP:  63; 6HR MAX TEMP:  66;

VIROQUA        CLOUDY    69  69 100 CALM      30.16F
6HR MIN TEMP:  68; 6HR MAX TEMP:  70;

BOSCOBEL       FOG       71  70  96 W3        30.15S VSB 1/4
6HR MIN TEMP:  71; 6HR MAX TEMP:  72; 6HR PCP:  0.01;

PRAIRIE DU CHI FAIR      70  69  96 CALM      30.15S
6HR MIN TEMP:  70; 6HR MAX TEMP:  72;

PLATTEVILLE    CLOUDY    70  70 100 CALM      30.17F
6HR MIN TEMP:  69; 6HR MAX TEMP:  71; 6HR PCP:  0.01;

$$

WIZ056-057-062-063-064-067-068-301300-
SOUTH CENTRAL WISCONSIN

CITY           SKY/WX    TMP DP  RH WIND       PRES   REMARKS
REEDSBURG      NOT AVBL
BARABOO/DELLS    N/A     68  67  96 SW3       30.14S FOG
6HR MIN TEMP:  67; 6HR MAX TEMP:  70;

LONE ROCK      FOG       71  70  96 CALM      30.16S VSB 1/4
6HR MIN TEMP:  71; 6HR MAX TEMP:  72; 6HR PCP: TRACE;

MINERAL POINT  FOG       70  70 100 S3        30.18R VSB<1/4
MADISON        MOCLDY    71  69  93 SW3       30.15R
6HR MIN TEMP:  68; 6HR MAX TEMP:  73;

MIDDLETON      FAIR      69  69 100 CALM      30.16S
6HR MIN TEMP:  68; 6HR MAX TEMP:  72;

WATERTOWN      FAIR      68  68 100 S3        30.15R FOG
6HR MIN TEMP:  67; 6HR MAX TEMP:  69;

MONROE         FAIR      70  68  94 SW5       30.17S FOG
JANESVILLE     PTCLDY    70  70 100 CALM      30.16R FOG
$$

WIZ051-052-058>065-066-070>072-301300-
SOUTHEAST WISCONSIN

CITY           SKY/WX    TMP DP  RH WIND       PRES   REMARKS
MILWAUKEE      MOCLDY    74  68  81 SW6       30.14F
6HR MIN TEMP:  73; 6HR MAX TEMP:  75;

WAUKESHA       CLEAR     68  66  94 CALM      30.16S
MILWAUKEE/TIMM FAIR      70  64  83 CALM      30.15S
RACINE         FAIR      72  68  87 CALM      30.17R
6HR MIN TEMP:  70; 6HR MAX TEMP:  73;

BURLINGTON     FAIR      66  65  99 CALM      30.15F FOG
6HR MIN TEMP:  65; 6HR MAX TEMP:  66;

KENOSHA        LGT RAIN  70  68  93 CALM      30.16S FOG
6HR MIN TEMP:  69; 6HR MAX TEMP:  72; 6HR PCP: TRACE;

FOND DU LAC    FAIR      69  68  96 S6        30.13S FOG
6HR MIN TEMP:  67; 6HR MAX TEMP:  71;

SHEBOYGAN      FAIR      68  66  93 S5        30.13S
6HR MIN TEMP:  65; 6HR MAX TEMP:  70;

WEST BEND      FAIR      68  64  88 CALM      30.15S
JUNEAU         FAIR      67  67  98 CALM      30.15S FOG
6HR MIN TEMP:  67; 6HR MAX TEMP:  70;

$$

LSZ147-162-301300-
LAKE SUPERIOR

STATION/POSITION TIME  TEMP    WIND        PRES    WAVE
                       AIR SEA DIR/SP/G            HT/PER
                 (UTC) (F)     (DEG/KT/KT) (MB)    (FT/S)
W MID LAKE BUOY  1150   68 67  350/ 12/ 14 1018.7R   1/ 4
DEVILS ISLAND    1200   66     350/ 18/ 20 1019.7R
PORT WING        1100   69     340/  8/ 11 1020.3R
SAXON HARBOR     1100   65     240/  4/  6 1019.0F
$$

LMZ867-665-643>646-301300-
LAKE MICHIGAN

STATION/POSITION TIME  TEMP    WIND        PRES    WAVE
                       AIR SEA DIR/SP/G            HT/PER
                 (UTC) (F)     (DEG/KT/KT) (MB)    (FT/S)
CHAMBERS ISLAND  1140   71     200/  5/  8 1019.0R
S GREEN BAY BUOY 1130   72 72  200/ 12/ 14 1018.6S
N MID LAKE BUOY  1150   71 71  230/  8/ 10 1018.4R   1/ 4
NORTHPORT PIER   1100   71      CALM C1F1C2F2C3F3C4F4C5F5C6F6C7F7C8M1C9M2Ca!


USA.gov is the U.S. government's official web portal to all federal, state and local government web resources and services.